CZ-2C R/B, 42948

Orbit data source: Space-Track

CZ-2C R/B, 42948 is space debris in LEO originally from a launch on Fri, 29 Sep 2017 UTC launched from the Xichang Space Center, China (XSC). Debris objects in space refer to the collection of defunct objects orbiting the Earth. Examples of debris include non-operational satellites, rocket bodies, and fragments generated from explosions, collisions, or faulty payload assembly.

Loading next visibility...
CZ-2C R/B details
Identifier
42948, 2017-058D
Orbit
LEO
Last TLE update21 hours ago
Origin
Flag of CNCASC (CN / PRC)
ManufacturerCALT
MissionSpacecraft
Bus & MotorCZ-2 STAGE 2, Unknown motor
Mass~3,800 kg wet, ~3,800 kg dry
Launch date (UTC)
2017-09-29 (7 years ago)
Launch vehicleUnknown
Launch site
Xichang Space Center, China (XSC)
Object type
Payload
Rocket body
Debris
Shape & HBRCyl, 7.49 m
Radar Cross Section23.715 m², Large (>1 m²)

Expand to show TLE details & history

TLE from 21 hours ago
0 CZ-2C R/B
1 42948U 17058D   24360.57574796  .00004777  00000-0  54400-3 0  9994
2 42948  34.9276 308.0542 0061618 345.6352  14.2598 14.84267467392093
Epoch: 2024-12-25T13:49Z
Definitive object data (Epoch: 2024-12-25T13:49:04.623Z)
Latitude-0.00003°
Longitude6.21737°
Altitude573.062 km
Speed7.599 km/s
True Right ascension20h 32m 12s
True Declination0° 00' 00"
Sunlit
Object was in daylight at TLE epoch
Visualization TLE readout
Latitude-32.10625°
Longitude-62.22244°
Altitude602.495 km
Speed7.571 km/s
Apparent Right ascension18h 34m 04s
Apparent Declination-44° 52' 18"
Sunlit
Object is in daylight
Visualization observer readout
Local Sidereal Time09:51:29
Azimuth114.488° SE
Elevation-53.782°
Doppler factor1
Orbital elements
Apogee altitude662.208 km
Perigee altitude575.977 km
Semi-major axis6,997.229 km
Eccentricity0.0061618
Inclination34.9276°
RAAN308.0542°
Arg. of periapsis345.6352°
True anomaly14.43503°
Mean anomaly14.2598°
Eccentric anomaly14.34728°
Mean motion3.70812 °/min
BSTAR0.000544
Orbital period97.08 mins
Loading maneuver chart data...
Loading historical data...
Loading historical data...
Loading historical data...
Loading historical data...
Loading historical data...
Loading historical data...
Loading historical data...
Other satellites on launch #58 in the year 2017 (2017-09-29 UTC)

CZ-2C R/B Visibility forecast

Observer location: undefined°, undefined

Span
Click to sort rows by Start time (UTC) header in descending order
Start Az.
Max El. time (UTC)
Max El. Az.
Max El.
End time (UTC)
End Az.
6 mins2024-12-26 23:56:18.009Z204.008° SW2024-12-26 23:59:18.009Z159.788° S19.192°2024-12-27 00:02:18.009Z113.244° SE
6 mins2024-12-27 01:39:18.009Z225.925° WSW2024-12-27 01:41:18.009Z177.636° S32.811°2024-12-27 01:45:18.009Z104.629° ESE
6 mins2024-12-27 03:21:18.009Z244.073° WSW2024-12-27 03:23:18.009Z201.15° SSW32.693°2024-12-27 03:27:18.009Z121.734° SE
6 mins2024-12-27 05:03:18.009Z241.696° WSW2024-12-27 05:05:18.009Z210.975° SW20.001°2024-12-27 05:09:18.009Z152.96° SSE
|